Weather History for KTQE - October, 2013

Change the Weather History Date:

Wednesday, October 16, 2013

  Actual Average Record
Temperature  
Mean Temperature 47 °F -  
Max Temperature 59 °F 64 °F 84 °F (1961)
Min Temperature 37 °F 38 °F 25 °F (1966)
Degree Days  
Heating Degree Days 18    
Moisture  
Dew Point 36 °F    
Average Humidity 67    
Maximum Humidity 89    
Minimum Humidity 36    
Precipitation  
Precipitation 0.00 in - - ()
Sea Level Pressure  
Sea Level Pressure 30.02 in    
Wind  
Wind Speed 9 mph (WNW)    
Max Wind Speed 14 mph    
Max Gust Speed 21 mph    
Visibility 10 miles    
Events      
Averages and records for this station are not official NWS values.
T = Trace of Precipitation, MM = Missing Value Source: NWS Daily Summary

Daily Weather History Graph

Daily Weather History Graph

Search for Another Location

Airport or City:

Trip Planner

Search our weather history database for the weather conditions in past years. The results will help you decide how hot, cold, wet, or windy it might be!

Date:

Astronomy

Oct. 16, 2013 Rise Set
Actual Time 7:38 AM CDT 6:41 PM CDT
Civil Twilight 7:10 AM CDT 7:09 PM CDT
Nautical Twilight 6:37 AM CDT 7:41 PM CDT
Astronomical Twilight 6:05 AM CDT 8:13 PM CDT
Moon 5:22 PM CDT (10/16) 5:05 AM CDT (10/16)
Length of Visible Light 11h 59m
Length of Day
11h 02m
Waxing Gibbous, 94% of the Moon is Illuminated
Oct 16
Waxing Gibbous
Oct 18
Full
Oct 26
Last Quarter
Nov 3
New
Nov 9
First Quarter

Hourly Weather History & Observations

Time (CDT) Temp. Windchill Dew Point Humidity Pressure Visibility Wind Dir Wind Speed Gust Speed Precip Events Conditions
12:54 AM 46.0 °F 40.6 °F 39.9 °F 79% 30.04 in 10.0 mi WNW 11.5 mph 18.4 mph N/A   Overcast
1:54 AM 46.0 °F 39.9 °F 39.0 °F 76% 30.04 in 10.0 mi WNW 13.8 mph 20.7 mph N/A   Overcast
2:54 AM 46.0 °F 41.9 °F 37.9 °F 73% 30.05 in 10.0 mi WNW 8.1 mph 17.3 mph N/A   Overcast
3:25 AM 46.4 °F 40.7 °F 37.4 °F 71% 30.05 in 10.0 mi WNW 12.7 mph - N/A   Overcast
3:35 AM 46.4 °F 40.7 °F 37.4 °F 71% 30.05 in 10.0 mi WNW 12.7 mph - N/A   Overcast
3:54 AM 46.0 °F 40.6 °F 37.0 °F 71% 30.05 in 10.0 mi WNW 11.5 mph - N/A   Overcast
4:54 AM 46.0 °F 41.9 °F 37.0 °F 71% 30.04 in 10.0 mi WNW 8.1 mph 16.1 mph N/A   Overcast
5:54 AM 46.0 °F 41.4 °F 37.9 °F 73% 30.04 in 10.0 mi NW 9.2 mph - N/A   Overcast
6:08 AM 44.6 °F 40.2 °F 37.4 °F 76% 30.04 in 10.0 mi NW 8.1 mph - N/A   Overcast
6:54 AM 45.0 °F 41.2 °F 39.0 °F 80% 30.05 in 10.0 mi WNW 6.9 mph - 0.00 in   Overcast
7:54 AM 45.0 °F 41.2 °F 37.9 °F 76% 30.05 in 10.0 mi WNW 6.9 mph - N/A   Overcast
8:54 AM 46.0 °F 40.6 °F 37.9 °F 73% 30.06 in 10.0 mi WNW 11.5 mph 17.3 mph N/A   Overcast
9:54 AM 46.9 °F - 37.9 °F 71% 30.07 in 10.0 mi WNW 11.5 mph - N/A   Overcast
10:54 AM 51.1 °F - 37.9 °F 61% 30.07 in 10.0 mi NW 11.5 mph - N/A   Mostly Cloudy
11:54 AM 51.1 °F - 36.0 °F 56% 30.07 in 10.0 mi NW 11.5 mph - N/A   Mostly Cloudy
12:54 PM 54.0 °F - 35.1 °F 49% 30.05 in 10.0 mi NW 6.9 mph - N/A   Partly Cloudy
1:54 PM 57.0 °F - 30.9 °F 37% 30.02 in 10.0 mi WNW 10.4 mph - N/A   Clear
2:54 PM 57.0 °F - 30.0 °F 36% 30.00 in 10.0 mi NW 10.4 mph - N/A   Clear
3:54 PM 57.9 °F - 33.1 °F 39% 29.97 in 10.0 mi WNW 6.9 mph - N/A   Clear
4:54 PM 57.9 °F - 32.0 °F 37% 29.96 in 10.0 mi WNW 6.9 mph - N/A   Clear
5:54 PM 57.0 °F - 30.9 °F 37% 29.96 in 10.0 mi WNW 4.6 mph - N/A   Clear
6:54 PM 48.0 °F - 37.9 °F 68% 29.96 in 10.0 mi Calm Calm - N/A   Clear
7:54 PM 43.0 °F 41.3 °F 37.0 °F 80% 29.97 in 10.0 mi SSW 3.5 mph - N/A   Clear
8:54 PM 39.0 °F - 35.1 °F 86% 29.97 in 10.0 mi Calm Calm - N/A   Clear
9:54 PM 39.0 °F 36.8 °F 36.0 °F 89% 29.96 in 10.0 mi SSW 3.5 mph - N/A   Clear
10:54 PM 37.9 °F 35.5 °F 35.1 °F 89% 29.96 in 10.0 mi SSW 3.5 mph - N/A   Clear
11:54 PM 37.0 °F 34.5 °F 34.0 °F 89% 29.96 in 10.0 mi SSW 3.5 mph - N/A   Clear